Frederick, MD

2:10 PM EDT on August 22, 2017 (GMT -0400)
Frederick Municipal

Weather History for KFDK - January, 2014

Change the Weather History Date:

Wednesday, January 22, 2014

  Actual Average (KHGR) Record (KHGR)
Temperature  
Mean Temperature 9 °F -  
Max Temperature 17 °F 33 °F 50 °F (2002)
Min Temperature 1 °F 20 °F 0 °F (2014)
Degree Days  
Heating Degree Days 56    
Moisture  
Dew Point -1 °F    
Average Humidity 59    
Maximum Humidity 72    
Minimum Humidity 45    
Precipitation  
Precipitation 0.00 in - - ()
Sea Level Pressure  
Sea Level Pressure 30.02 in    
Wind  
Wind Speed 8 mph (NNW)    
Max Wind Speed 13 mph    
Max Gust Speed 16 mph    
Visibility 10 miles    
Events      
Averages and records for this station are not official NWS values.
T = Trace of Precipitation, MM = Missing Value Source: NWS Daily Summary

Daily Weather History Graph

Daily Weather History Graph

Search for Another Location

Airport or City:

Trip Planner

Search our weather history database for the weather conditions in past years. The results will help you decide how hot, cold, wet, or windy it might be!

Date:

Astronomy

Jan. 22, 2014 Rise Set
Actual Time 7:24 AM EST 5:18 PM EST
Civil Twilight 6:55 AM EST 5:47 PM EST
Nautical Twilight 6:22 AM EST 6:19 PM EST
Astronomical Twilight 5:50 AM EST 6:51 PM EST
Moon 11:46 PM EST 10:26 AM EST
Length of Visible Light 10h 51m
Length of Day
9h 53m
Waning Gibbous, 65% of the Moon is Illuminated
Jan 22
Waning Gibbous
Jan 24
Last Quarter
Jan 30
New
Feb 6
First Quarter
Feb 14
Full

Hourly Weather History & Observations

Time (EST) Temp. Windchill Dew Point Humidity Pressure Visibility Wind Dir Wind Speed Gust Speed Precip Events Conditions
12:05 AM 14.0 °F -0.2 °F 1.4 °F 57% 29.95 in 10.0 mi North 12.7 mph - N/A   Scattered Clouds
12:25 AM 12.2 °F -0.2 °F 1.4 °F 62% 29.96 in 10.0 mi North 9.2 mph - N/A   Clear
12:45 AM 12.2 °F 1.7 °F -0.4 °F 57% 29.96 in 10.0 mi North 6.9 mph - N/A   Clear
1:05 AM 12.2 °F 0.7 °F -0.4 °F 57% 29.97 in 10.0 mi North 8.1 mph - N/A   Clear
1:25 AM 10.4 °F 2.2 °F -0.4 °F 62% 29.97 in 10.0 mi North 4.6 mph - N/A   Clear
1:45 AM 10.4 °F 4.0 °F -0.4 °F 62% 29.97 in 10.0 mi North 3.5 mph - N/A   Clear
2:05 AM 10.4 °F -2.4 °F -0.4 °F 62% 29.97 in 10.0 mi NNW 9.2 mph - N/A   Clear
2:25 AM 10.4 °F -1.5 °F -0.4 °F 62% 29.98 in 10.0 mi NNW 8.1 mph - N/A   Clear
2:45 AM 10.4 °F -1.5 °F -0.4 °F 62% 29.98 in 10.0 mi NNW 8.1 mph - N/A   Clear
3:05 AM 8.6 °F -2.6 °F -0.4 °F 67% 29.98 in 10.0 mi North 6.9 mph - N/A   Clear
3:25 AM 8.6 °F -1.3 °F -0.4 °F 67% 29.98 in 10.0 mi NNW 5.8 mph - N/A   Clear
3:45 AM 8.6 °F -2.6 °F -0.4 °F 67% 29.99 in 10.0 mi NNW 6.9 mph - N/A   Clear
4:05 AM 8.6 °F -4.7 °F -0.4 °F 67% 29.98 in 10.0 mi NW 9.2 mph - N/A   Clear
4:25 AM 8.6 °F -2.6 °F -0.4 °F 67% 29.99 in 10.0 mi NNW 6.9 mph - N/A   Clear
4:45 AM 8.6 °F -3.7 °F -0.4 °F 67% 29.99 in 10.0 mi NW 8.1 mph - N/A   Clear
5:25 AM 5.0 °F -4.1 °F -2.2 °F 72% 29.99 in 10.0 mi NNW 4.6 mph - N/A   Clear
5:40 AM 5.0 °F -4.1 °F -4.0 °F 66% 29.99 in 10.0 mi NW 4.6 mph - N/A   Clear
6:45 AM 5.0 °F -8.1 °F -4.0 °F 66% 30.01 in 10.0 mi NNW 8.1 mph - N/A   Clear
7:50 AM 1.4 °F -8.3 °F -5.8 °F 72% 30.02 in 10.0 mi NNW 4.6 mph - N/A   Clear
8:45 AM 6.8 °F -7.8 °F -4.0 °F 61% 30.04 in 10.0 mi North 10.4 mph 16.1 mph N/A   Clear
9:45 AM 8.6 °F -6.3 °F -2.2 °F 62% 30.05 in 10.0 mi North 11.5 mph - N/A   Clear
10:55 AM 10.4 °F -3.3 °F -2.2 °F 57% 30.06 in 10.0 mi NW 10.4 mph - N/A   Clear
11:47 AM 10.4 °F -4.1 °F -0.4 °F 62% 30.05 in 10.0 mi NW 11.5 mph 16.1 mph N/A   Clear
12:50 PM 14.0 °F 2.9 °F -0.4 °F 53% 30.02 in 10.0 mi WNW 8.1 mph - N/A   Clear
1:45 PM 15.8 °F 4.2 °F -0.4 °F 49% 30.02 in 10.0 mi WNW 9.2 mph - N/A   Clear
2:45 PM 15.8 °F 3.4 °F -0.4 °F 49% 30.01 in 10.0 mi NW 10.4 mph - N/A   Clear
3:48 PM 17.6 °F 6.4 °F -0.4 °F 45% 30.02 in 10.0 mi NW 9.2 mph - N/A   Clear
4:45 PM 15.8 °F 5.1 °F -0.4 °F 49% 30.04 in 10.0 mi NW 8.1 mph - N/A   Clear
5:45 PM 14.0 °F 2.0 °F -2.2 °F 49% 30.06 in 10.0 mi NW 9.2 mph - N/A   Clear
6:54 PM 12.2 °F 2.9 °F -2.2 °F 53% 30.07 in 10.0 mi NW 5.8 mph - N/A   Clear
7:59 PM 12.2 °F -0.2 °F -2.2 °F 53% 30.09 in 10.0 mi NW 9.2 mph - N/A   Clear
8:25 PM 14.0 °F 5.1 °F -0.4 °F 53% 30.09 in 10.0 mi NW 5.8 mph - N/A   Clear
8:45 PM 14.0 °F 6.5 °F -0.4 °F 53% 30.09 in 10.0 mi NW 4.6 mph - N/A   Clear
9:05 PM 14.0 °F 3.9 °F -0.4 °F 53% 30.10 in 10.0 mi NW 6.9 mph - N/A   Clear
11:20 PM 14.0 °F 8.2 °F 1.4 °F 57% 30.12 in 10.0 mi WNW 3.5 mph - N/A   Overcast